Retour au catalogue

STARLINK-5684

ActifCommunicationsVLEO
NORAD 55453·PAYLOAD·🇺🇸 United States

Lancé Feb 2, 2023 depuis Cape Canaveral Space Force Station

Loading…

Prochains Passages (prochaines 24 heures)

TLE

FraisSource: CelesTrak SupGP

Époque: Sep 15, 2026, 03:03 UTC

1 55453C 23015E   26258.12756944  .00027956  00000+0  10124-2 0  2580
2 55453  43.0008 338.7083 0001675 271.0565 180.1802 15.27568207    10

Suivez STARLINK-5684 en temps réel avec AllMySat

Download on the App Store